Tracking 18624 objects as of 30-April-2017
HD Live streaming from Space Station
objects crossing your sky now

EUTE HOT BIRD 13A (HB 6)

Track EUTE HOT BIRD 13A (HB 6) now!
EUTE HOT BIRD 13A (HB 6) is classified as:


NORAD ID: 27499
Int'l Code: 2002-038A
Perigee: 36,046.2 km
Apogee: 36,078.1 km
Inclination: 0.7 °
Period: 1,449.8 minutes
Semi major axis: 42433 km
RCS: 15.0118 m2 (large)
Launch date: August 21, 2002
Source: European Telecommunications Satellite Organization (EUTE)
Launch site: AIR FORCE EASTERN TEST RANGE (AFETR)

Cable programming; direct-to-home broadcasting; 28 Ku-band, 4 Ka-band transponders
Your satellite tracking list
Your tracking list is empty





NASA's NSSDC Master Catalog

Two Line Element Set (TLE):
1 27499U 02038A   17117.69222833 +.00000015 +00000-0 +00000-0 0  9992
2 27499 000.6838 088.2204 0003750 248.0220 023.7478 00.99321878017797
Source of the keplerian elements: AFSPC